Location: Archamps
(46.1365°N, 6.1329°E)
Time: 17:33:21
(UTC+00:00)

Cosmos 2360 Rocket - Pass Details

Date: 28 January 2023
Orbit: 832 x 846 km, 71.0° (Epoch: 29 March)

Event Time Altitude Azimuth Distance (km) Brightness Sun altitude
Rises 17:54:45 0° 149° (SSE) 3,371 5.1 -14.0°
Reaches altitude 10° 17:58:29 10° 124° (SE) 2,447 4.2 -14.7°
Enters shadow 17:58:32 10° 124° (ESE) 2,439 4.2 -14.7°
